Change the Weather History Date:

Thursday, March 28, 2013

  Actual Average Record
Temperature  
Mean Temperature 69 °F 66 °F  
Max Temperature 87 °F 83 °F 97 °F (1969)
Min Temperature 51 °F 49 °F 38 °F (2009)
Degree Days  
Heating Degree Days 0 2  
Month to date heating degree days 34 89  
Since 1 July heating degree days 1122 1154  
Cooling Degree Days 4 3  
Month to date cooling degree days 133 53  
Year to date cooling degree days 133 65  
Growing Degree Days 18 (Base 50)    
Moisture  
Dew Point 40 °F    
Average Humidity 39    
Maximum Humidity 63    
Minimum Humidity 15    
Precipitation  
Precipitation 0.00 in 0.01 in 0.12 in (1961)
Month to date precipitation 0.07 0.37  
Year to date precipitation 0.44 1.70  
Since 1 July precipitation 2.62 3.08  
Snow  
Snow 0.00 in - - ()
Month to date snowfall 0.0  
Year to date snowfall 0.0  
Since 1 July snowfall 0.0  
Snow Depth 0.00 in    
Sea Level Pressure  
Sea Level Pressure 29.93 in    
Wind  
Wind Speed 5 mph (ESE)    
Max Wind Speed 15 mph    
Max Gust Speed 20 mph    
Visibility 10 miles    
Events      
T = Trace of Precipitation, MM = Missing Value Source: NWS Daily Summary

Daily Weather History Graph

Daily Weather History Graph

Search for Another Location

Airport or City:

Trip Planner

Search our weather history database for the weather conditions in past years. The results will help you decide how hot, cold, wet, or windy it might be!

Date:

Astronomy

Mar. 28, 2013 Rise Set
Actual Time 6:37 AM PDT 7:02 PM PDT
Civil Twilight 6:12 AM PDT 7:27 PM PDT
Nautical Twilight 5:42 AM PDT 7:56 PM PDT
Astronomical Twilight 5:13 AM PDT 8:26 PM PDT
Moon 8:51 PM PDT (3/28) 7:13 AM PDT (3/28)
Length of Visible Light 13h 15m
Length of Day
12h 25m
Full, 98% of the Moon is Illuminated
Mar 28
Full
Apr 2
Last Quarter
Apr 10
New
Apr 18
First Quarter
Apr 25
Full

Hourly Weather History & Observations

Time (PDT) Temp. Dew Point Humidity Pressure Visibility Wind Dir Wind Speed Gust Speed Precip Events Conditions
12:52 AM 71.1 °F 43.0 °F 36% 29.91 in 10.0 mi NNW 12.7 mph - N/A   Clear
1:52 AM 70.0 °F 41.0 °F 35% 29.88 in 10.0 mi NNW 11.5 mph - N/A   Clear
2:52 AM 69.1 °F 42.1 °F 38% 29.91 in 10.0 mi WNW 8.1 mph - N/A   Clear
3:52 AM 64.9 °F 43.0 °F 45% 29.88 in 10.0 mi WNW 4.6 mph - N/A   Clear
5:52 AM 55.9 °F 42.1 °F 60% 29.90 in 10.0 mi Calm Calm - N/A   Clear
6:52 AM 51.1 °F 39.9 °F 66% 29.92 in 10.0 mi Calm Calm - N/A   Clear
7:52 AM 60.1 °F 45.0 °F 57% 29.95 in 10.0 mi Calm Calm - N/A   Clear
8:52 AM 71.1 °F 43.0 °F 36% 29.97 in 10.0 mi NNW 3.5 mph - N/A   Clear
9:52 AM 73.0 °F 44.1 °F 35% 29.97 in 10.0 mi Calm Calm - N/A   Clear
10:52 AM 77.0 °F 44.1 °F 31% 29.98 in 10.0 mi Calm Calm - N/A   Clear
11:52 AM 81.0 °F 39.0 °F 22% 29.98 in 10.0 mi East 4.6 mph - N/A   Clear
12:52 PM 82.9 °F 39.0 °F 21% 29.96 in 10.0 mi East 9.2 mph - N/A   Clear
1:52 PM 84.9 °F 37.9 °F 19% 29.96 in 10.0 mi East 6.9 mph - N/A   Clear
2:52 PM 86.0 °F 34.0 °F 16% 29.94 in 10.0 mi SE 8.1 mph - N/A   Clear
3:52 PM 86.0 °F 34.0 °F 16% 29.90 in 10.0 mi SE 8.1 mph - N/A   Clear
4:52 PM 84.9 °F 32.0 °F 15% 29.89 in 10.0 mi SSE 8.1 mph - N/A   Clear
5:52 PM 84.0 °F 32.0 °F 15% 29.89 in 10.0 mi SSE 4.6 mph - N/A   Clear
6:52 PM 78.1 °F 37.0 °F 23% 29.89 in 10.0 mi SE 4.6 mph - N/A   Clear
7:52 PM 72.0 °F 39.9 °F 31% 29.90 in 10.0 mi Calm Calm - N/A   Clear
8:52 PM 70.0 °F 42.1 °F 36% 29.92 in 10.0 mi Calm Calm - N/A   Clear
9:52 PM 62.1 °F 39.9 °F 44% 29.94 in 10.0 mi SW 3.5 mph - N/A   Clear
10:52 PM 63.0 °F 41.0 °F 45% 29.94 in 10.0 mi West 4.6 mph - N/A   Clear
11:52 PM 59.0 °F 39.9 °F 49% 29.95 in 10.0 mi Calm Calm - N/A   Clear